Previsão horária em Bolshie Kaskevichi

Hoje, 9 Março, Terça-feira

Tempo Temperatura Precipitação Vento Pressão Humidade
00:00 -12°C° 0 mm 2 m/s 743 mmHg 91%
01:00 -12°C° 0 mm 2 m/s 744 mmHg 91%
02:00 -10°C° 0 mm 2 m/s 744 mmHg 94%
03:00 -12°C° 0 mm 2 m/s 744 mmHg 94%
04:00 -12°C° 0 mm 2 m/s 744 mmHg 95%
05:00 -12°C° 0 mm 2 m/s 745 mmHg 95%
06:00 -12°C° 0 mm 2 m/s 745 mmHg 94%
07:00 -13°C° 0 mm 3 m/s 745 mmHg 93%
08:00 -12°C° 0 mm 3 m/s 746 mmHg 92%
09:00 -12°C° 0 mm 3 m/s 746 mmHg 87%
10:00 -10°C° 0 mm 3 m/s 747 mmHg 82%
11:00 -9°C° 0 mm 3 m/s 747 mmHg 77%
12:00 -9°C° 0 mm 3 m/s 747 mmHg 73%
13:00 -8°C° 0 mm 3 m/s 747 mmHg 70%
14:00 -8°C° 0 mm 3 m/s 747 mmHg 66%
15:00 -7°C° 0 mm 2 m/s 747 mmHg 69%
16:00 -7°C° 0 mm 2 m/s 748 mmHg 72%
17:00 -6°C° 0 mm 1 m/s 748 mmHg 75%
18:00 -7°C° 0 mm 1 m/s 748 mmHg 76%
19:00 -8°C° 0 mm 1 m/s 748 mmHg 76%
20:00 -9°C° 0 mm 1 m/s 748 mmHg 77%
21:00 -8°C° 0 mm 1 m/s 748 mmHg 78%
22:00 -9°C° 0 mm 2 m/s 748 mmHg 79%
23:00 -9°C° 0 mm 2 m/s 748 mmHg 80%

Amanhã, 10 Março, Quarta-feira

Tempo Temperatura Precipitação Vento Pressão Humidade
00:00 -9°C° 0 mm 2 m/s 748 mmHg 81%
01:00 -10°C° 0 mm 3 m/s 748 mmHg 82%
02:00 -10°C° 0 mm 3 m/s 748 mmHg 83%
03:00 -10°C° 0 mm 3 m/s 748 mmHg 83%
04:00 -10°C° 0 mm 3 m/s 748 mmHg 83%
05:00 -10°C° 0 mm 3 m/s 748 mmHg 84%
06:00 -10°C° 0 mm 3 m/s 748 mmHg 83%
07:00 -9°C° 0 mm 3 m/s 748 mmHg 83%
08:00 -9°C° 0 mm 3 m/s 748 mmHg 82%
09:00 -8°C° 0 mm 3 m/s 748 mmHg 79%
10:00 -7°C° 0 mm 3 m/s 748 mmHg 75%
11:00 -6°C° 0 mm 3 m/s 748 mmHg 71%
12:00 -6°C° 0 mm 3 m/s 748 mmHg 68%
13:00 -5°C° 0 mm 3 m/s 748 mmHg 66%
14:00 -4°C° 0 mm 2 m/s 749 mmHg 63%
15:00 -4°C° 0 mm 2 m/s 748 mmHg 67%
16:00 -4°C° 0 mm 2 m/s 748 mmHg 70%
17:00 -3°C° 0 mm 1 m/s 748 mmHg 74%
18:00 -4°C° 0 mm 1 m/s 749 mmHg 76%
19:00 -6°C° 0 mm 1 m/s 749 mmHg 78%
20:00 -7°C° 0 mm 1 m/s 749 mmHg 80%
21:00 -9°C° 0 mm 2 m/s 750 mmHg 83%
22:00 -10°C° 0 mm 2 m/s 750 mmHg 87%
23:00 -12°C° 0 mm 3 m/s 750 mmHg 90%

Depois de amanhã, 11 Março, Quinta-feira

Tempo Temperatura Precipitação Vento Pressão Humidade
00:00 -13°C° 0 mm 3 m/s 750 mmHg 91%
01:00 -14°C° 0 mm 3 m/s 750 mmHg 92%
02:00 -15°C° 0 mm 3 m/s 751 mmHg 93%
03:00 -15°C° 0 mm 3 m/s 751 mmHg 93%
04:00 -15°C° 0 mm 3 m/s 751 mmHg 94%
05:00 -16°C° 0 mm 3 m/s 751 mmHg 94%
06:00 -15°C° 0 mm 3 m/s 751 mmHg 93%
07:00 -16°C° 0 mm 4 m/s 751 mmHg 93%
08:00 -16°C° 0 mm 4 m/s 751 mmHg 92%
09:00 -15°C° 0 mm 4 m/s 751 mmHg 91%
10:00 -14°C° 0 mm 4 m/s 751 mmHg 89%
11:00 -11°C° 0 mm 4 m/s 751 mmHg 87%
12:00 -10°C° 0 mm 4 m/s 751 mmHg 85%
13:00 -9°C° 0 mm 4 m/s 751 mmHg 84%
14:00 -8°C° 0 mm 4 m/s 751 mmHg 83%
15:00 -8°C° 0 mm 5 m/s 750 mmHg 84%
16:00 -8°C° 0 mm 5 m/s 750 mmHg 86%
17:00 -10°C° 0 mm 5 m/s 749 mmHg 87%
18:00 -10°C° 0 mm 5 m/s 749 mmHg 88%
19:00 -11°C° 0 mm 5 m/s 749 mmHg 90%
20:00 -11°C° 0 mm 6 m/s 749 mmHg 91%
21:00 -11°C° 0 mm 6 m/s 748 mmHg 90%
22:00 -12°C° 0 mm 6 m/s 748 mmHg 89%
23:00 -12°C° 0 mm 6 m/s 748 mmHg 88%

12 Março, Sexta-feira

Tempo Temperatura Precipitação Vento Pressão Humidade
00:00 -13°C° 0 mm 7 m/s 747 mmHg 88%
01:00 -13°C° 0 mm 7 m/s 747 mmHg 88%
02:00 -13°C° 0 mm 7 m/s 746 mmHg 88%
03:00 -13°C° 0 mm 7 m/s 746 mmHg 87%
04:00 -13°C° 0 mm 8 m/s 745 mmHg 86%
05:00 -13°C° 0 mm 8 m/s 744 mmHg 85%
06:00 -13°C° 0 mm 8 m/s 743 mmHg 83%
07:00 -12°C° 0 mm 8 m/s 743 mmHg 81%
08:00 -12°C° 0 mm 9 m/s 742 mmHg 80%
09:00 -11°C° 0.3 mm 9 m/s 741 mmHg 83%
10:00 -10°C° 0.3 mm 10 m/s 741 mmHg 87%
11:00 -9°C° 0.3 mm 10 m/s 740 mmHg 90%
12:00 -9°C° 0.7 mm 10 m/s 740 mmHg 91%
13:00 -8°C° 0.7 mm 10 m/s 739 mmHg 92%
14:00 -7°C° 0.7 mm 10 m/s 738 mmHg 92%
15:00 -7°C° 1 mm 10 m/s 738 mmHg 93%
16:00 -6°C° 1 mm 9 m/s 738 mmHg 94%
17:00 -6°C° 1 mm 9 m/s 737 mmHg 94%
18:00 -6°C° 0.6 mm 8 m/s 737 mmHg 95%
19:00 -4°C° 0.6 mm 7 m/s 737 mmHg 95%
20:00 -4°C° 0.6 mm 7 m/s 737 mmHg 96%
21:00 -4°C° 0.4 mm 6 m/s 737 mmHg 96%
22:00 -2°C° 0.4 mm 5 m/s 737 mmHg 97%
23:00 -2°C° 0.4 mm 4 m/s 738 mmHg 98%

13 Março, Sábado

Tempo Temperatura Precipitação Vento Pressão Humidade
00:00 -1°C° 0.1 mm 4 m/s 738 mmHg 97%
01:00 -1°C° 0.1 mm 4 m/s 738 mmHg 96%
02:00 -1°C° 0.1 mm 4 m/s 738 mmHg 96%
03:00 -2°C° 0 mm 4 m/s 739 mmHg 95%
04:00 -3°C° 0 mm 4 m/s 739 mmHg 94%
05:00 -2°C° 0 mm 3 m/s 739 mmHg 93%
06:00 -3°C° 0 mm 4 m/s 740 mmHg 94%
07:00 -2°C° 0 mm 4 m/s 740 mmHg 94%
08:00 -2°C° 0 mm 4 m/s 740 mmHg 95%
09:00 -2°C° 0 mm 4 m/s 741 mmHg 96%
10:00 -1°C° 0 mm 4 m/s 741 mmHg 97%
11:00 -1°C° 0 mm 5 m/s 741 mmHg 98%
12:00 -1°C° 0 mm 5 m/s 741 mmHg 98%
13:00 0°C° 0 mm 5 m/s 740 mmHg 97%
14:00 0°C° 0 mm 4 m/s 740 mmHg 97%
15:00 0°C° 0 mm 5 m/s 740 mmHg 95%
16:00 0°C° 0 mm 5 m/s 739 mmHg 94%
17:00 0°C° 0 mm 5 m/s 739 mmHg 92%
18:00 0°C° 0 mm 5 m/s 739 mmHg 92%
19:00 -1°C° 0 mm 6 m/s 739 mmHg 92%
20:00 -2°C° 0 mm 6 m/s 739 mmHg 92%
21:00 -1°C° 0.5 mm 5 m/s 739 mmHg 94%
22:00 -1°C° 0.5 mm 5 m/s 739 mmHg 96%
23:00 -1°C° 0.5 mm 5 m/s 739 mmHg 97%

14 Março, Domingo

Tempo Temperatura Precipitação Vento Pressão Humidade
00:00 -1°C° 0.2 mm 4 m/s 739 mmHg 97%
01:00 -1°C° 0.2 mm 4 m/s 739 mmHg 96%
02:00 0°C° 0.2 mm 3 m/s 739 mmHg 96%
03:00 -1°C° 0 mm 3 m/s 738 mmHg 95%
04:00 -3°C° 0 mm 4 m/s 738 mmHg 95%
05:00 -3°C° 0 mm 4 m/s 738 mmHg 94%
06:00 -2°C° 0 mm 4 m/s 738 mmHg 93%
07:00 -2°C° 0 mm 5 m/s 738 mmHg 91%
08:00 -2°C° 0 mm 6 m/s 738 mmHg 90%
09:00 -2°C° 0.1 mm 6 m/s 738 mmHg 93%
10:00 -1°C° 0.1 mm 6 m/s 738 mmHg 96%
11:00 -1°C° 0.1 mm 6 m/s 738 mmHg 99%
12:00 -1°C° 0 mm 6 m/s 738 mmHg 98%
13:00 0°C° 0 mm 5 m/s 738 mmHg 97%
14:00 +1°C° 0 mm 5 m/s 737 mmHg 96%
15:00 +1°C° 0 mm 5 m/s 737 mmHg 96%
16:00 +1°C° 0 mm 5 m/s 737 mmHg 95%
17:00 +1°C° 0 mm 5 m/s 737 mmHg 95%
18:00 +1°C° 0.1 mm 5 m/s 737 mmHg 94%
19:00 +2°C° 0.1 mm 5 m/s 737 mmHg 93%
20:00 +2°C° 0.1 mm 6 m/s 737 mmHg 92%
21:00 +2°C° 0 mm 6 m/s 737 mmHg 91%
22:00 +1°C° 0 mm 6 m/s 737 mmHg 90%
23:00 0°C° 0 mm 7 m/s 737 mmHg 90%
Mostrar mais